Location: Marsån
(66.4167°N, 22.2833°E)
Time: 10:59:49
(UTC+00:00)

CARTOSAT-1 - Pass Details

Date: 24 February 2024
Orbit: 607 x 610 km, 97.6° (Epoch: 15 April)

Event Time Altitude Azimuth Distance (km) Brightness Sun altitude
Exits shadow 17:51:17 10° 157° (SSE) 1,954 5.8 -15.3°
Maximum altitude 17:55:32 87° 71° (ENE) 624 3.5 -15.8°
Drops below altitude 10° 17:59:53 10° 341° (NNW) 1,987 6.6 -16.2°
Sets 18:02:04 0° 341° (NNW) 2,896 7.5 -16.4°
